Montpelier, VT

1:36 AM EDT on May 27, 2018 (GMT -0400)
Knapp State

Weather History for KMPV - July, 2013

Change the Weather History Date:

Friday, July 19, 2013

  Actual Average Record
Temperature  
Mean Temperature 78 °F 67 °F  
Max Temperature 89 °F 79 °F 92 °F (1991)
Min Temperature 67 °F 56 °F 44 °F (1956)
Degree Days  
Heating Degree Days 0 1  
Month to date heating degree days 25  
Since 1 June heating degree days 146  
Since 1 July heating degree days 25  
Cooling Degree Days 13 3  
Month to date cooling degree days 142 61  
Year to date cooling degree days 221 124  
Since 1 June cooling degree days 210 114  
Growing Degree Days 28 (Base 50)    
Moisture  
Dew Point 68 °F    
Average Humidity 78    
Maximum Humidity 100    
Minimum Humidity 55    
Precipitation  
Precipitation 0.16 in 0.13 in 1.30 in (1951)
Month to date precipitation 3.65 2.36  
Year to date precipitation 21.27 19.07  
Sea Level Pressure  
Sea Level Pressure 29.82 in    
Wind  
Wind Speed 8 mph (SW)    
Max Wind Speed 30 mph    
Max Gust Speed 44 mph    
Visibility 10 miles    
Events Rain , Thunderstorm    
T = Trace of Precipitation, MM = Missing Value Source: NWS Daily Summary

Daily Weather History Graph

Daily Weather History Graph

Search for Another Location

Airport or City:

Astronomy

Jul. 19, 2013 Rise Set
Actual Time 5:24 AM EDT 8:28 PM EDT
Civil Twilight 4:49 AM EDT 9:02 PM EDT
Nautical Twilight 4:05 AM EDT 9:46 PM EDT
Astronomical Twilight 3:12 AM EDT 10:39 PM EDT
Moon 5:27 PM EDT (7/19) 2:03 AM EDT (7/19)
Length of Visible Light 16h 12m
Length of Day
15h 03m
Waxing Gibbous, 86% of the Moon is Illuminated
Jul 19
Waxing Gibbous
Jul 22
Full
Jul 29
Last Quarter
Aug 6
New
Aug 14
First Quarter

Hourly Weather History & Observations

Time (EDT) Temp. Heat Index Dew Point Humidity Pressure Visibility Wind Dir Wind Speed Gust Speed Precip Events Conditions
12:51 AM 69.1 °F - 66.9 °F 93% 29.97 in 10.0 mi Calm Calm - N/A   Clear
1:51 AM 69.1 °F - 68.0 °F 96% 29.96 in 10.0 mi North 3.5 mph - N/A   Scattered Clouds
2:51 AM 68.0 °F - 66.9 °F 96% 29.94 in 10.0 mi South 3.5 mph - 0.00 in Rain Light Rain
3:51 AM 66.9 °F - 66.0 °F 97% 29.91 in 8.0 mi Calm Calm - 0.00 in   Clear
4:51 AM 66.9 °F - 66.0 °F 97% 29.90 in 10.0 mi Calm Calm - N/A   Clear
5:51 AM 71.1 °F - 68.0 °F 90% 29.90 in 10.0 mi South 8.1 mph - N/A   Clear
6:51 AM 72.0 °F - 69.1 °F 91% 29.89 in 10.0 mi South 5.8 mph - 0.01 in   Clear
7:51 AM 79.0 °F - 70.0 °F 74% 29.87 in 10.0 mi WSW 9.2 mph - N/A   Clear
8:51 AM 80.1 °F 83.2 °F 70.0 °F 71% 29.87 in 10.0 mi SW 8.1 mph 19.6 mph N/A   Clear
9:51 AM 82.9 °F 87.0 °F 70.0 °F 65% 29.85 in 10.0 mi SSW 12.7 mph 20.7 mph N/A   Clear
10:51 AM 82.0 °F 85.5 °F 69.1 °F 65% 29.85 in 10.0 mi SW 10.4 mph 21.9 mph N/A   Clear
11:51 AM 84.0 °F 88.4 °F 70.0 °F 63% 29.83 in 10.0 mi SW 15.0 mph 21.9 mph N/A   Clear
12:51 PM 87.1 °F 91.3 °F 69.1 °F 55% 29.81 in 10.0 mi SW 10.4 mph 16.1 mph N/A   Partly Cloudy
1:51 PM 88.0 °F 92.1 °F 69.1 °F 53% 29.77 in 10.0 mi SW 15.0 mph 26.5 mph N/A   Partly Cloudy
2:51 PM 88.0 °F 92.9 °F 70.0 °F 55% 29.74 in 10.0 mi SSW 15.0 mph 24.2 mph N/A   Partly Cloudy
3:51 PM 89.1 °F 95.0 °F 71.1 °F 55% 29.73 in 10.0 mi SW 11.5 mph 24.2 mph N/A   Partly Cloudy
4:51 PM 87.1 °F 92.0 °F 70.0 °F 57% 29.72 in 10.0 mi SW 10.4 mph 24.2 mph N/A   Partly Cloudy
5:51 PM 84.0 °F 89.0 °F 71.1 °F 65% 29.72 in 10.0 mi SSW 10.4 mph 16.1 mph 0.05 in   Partly Cloudy
6:51 PM 84.9 °F 88.8 °F 69.1 °F 59% 29.72 in 10.0 mi WSW 6.9 mph - 0.00 in   Clear
7:33 PM 84.2 °F 87.3 °F 68.0 °F 58% 29.75 in 10.0 mi WSW 6.9 mph 16.1 mph N/A Thunderstorm Partly Cloudy
7:51 PM 82.0 °F 84.1 °F 66.0 °F 58% 29.72 in 10.0 mi SW 12.7 mph 24.2 mph N/A   Partly Cloudy
8:22 PM 73.4 °F - 64.4 °F 73% 29.80 in 5.0 mi NW 16.1 mph 43.7 mph 0.09 in Rain , Thunderstorm Light Rain
8:30 PM 73.4 °F - 64.4 °F 73% 29.80 in 10.0 mi WNW 10.4 mph 27.6 mph 0.10 in Rain , Thunderstorm Light Rain
8:51 PM 72.0 °F - 64.9 °F 78% 29.77 in 10.0 mi WSW 4.6 mph - 0.10 in Thunderstorm Partly Cloudy
9:05 PM 71.6 °F - 64.4 °F 78% 29.79 in 10.0 mi WSW 5.8 mph - N/A   Scattered Clouds
9:51 PM 72.0 °F - 66.0 °F 81% 29.78 in 10.0 mi Calm Calm - 0.00 in   Partly Cloudy
10:51 PM 69.1 °F - 66.9 °F 93% 29.76 in 10.0 mi South 4.6 mph - N/A   Clear
11:51 PM 73.9 °F - 66.0 °F 76% 29.72 in 10.0 mi SW 8.1 mph - N/A   Partly Cloudy